This is the latest recevied weather packets stored in our database for station/object WE3WEE. If no packets are shown the sender has not sent any weather packets the latest 10 day(s).
| Time | Temp. | Humidity | Pressure | Rain* | Wind** | Luminosity | Snow |
|---|---|---|---|---|---|---|---|
| 1777640486 | 7.78° C | 81% | 1014.8 hPa | 0 mm | - | - | - |
| 1777640183 | 7.78° C | 82% | 1014.8 hPa | 0 mm | - | - | - |
| 1777639879 | 7.22° C | 84% | 1014.8 hPa | 0 mm | - | - | - |
| 1777639577 | 7.22° C | 84% | 1014.8 hPa | 0 mm | - | - | - |
| 1777639274 | 7.22° C | 84% | 1014.8 hPa | 0 mm | - | - | - |
| 1777638970 | 7.22° C | 85% | 1014.8 hPa | 0 mm | - | - | - |
| 1777638665 | 6.67° C | 87% | 1014.8 hPa | 0 mm | - | - | - |
| 1777638362 | 6.67° C | 87% | 1014.8 hPa | 0 mm | - | - | - |
| 1777638058 | 6.11° C | 87% | 1014.8 hPa | 0 mm | - | - | - |
| 1777637755 | 6.11° C | 88% | 1014.8 hPa | 0 mm | - | - | - |
| 1777637451 | 6.11° C | 87% | 1014.8 hPa | 0 mm | - | - | - |
| 1777637149 | 6.67° C | 89% | 1013.8 hPa | 0 mm | - | - | - |
| 1777636845 | 7.22° C | 88% | 1013.8 hPa | 0 mm | - | - | - |
| 1777636541 | 7.22° C | 86% | 1013.8 hPa | 0 mm | - | - | - |
| 1777636237 | 6.67° C | 86% | 1014.8 hPa | 0 mm | - | - | - |
| 1777635937 | 6.11° C | 89% | 1014.8 hPa | 0 mm | - | - | - |
| 1777635633 | 5.56° C | 90% | 1014.8 hPa | 0 mm | - | - | - |
| 1777635331 | 5.56° C | 90% | 1014.8 hPa | 0 mm | - | - | - |
| 1777635027 | 5.56° C | 90% | 1014.8 hPa | 0 mm | - | - | - |
| 1777634723 | 5° C | 90% | 1014.8 hPa | 0 mm | - | - | - |
| 1777634421 | 4.44° C | 92% | 1014.8 hPa | 0 mm | - | - | - |
| 1777634118 | 3.89° C | 97% | 1014.8 hPa | 0 mm | - | - | - |
| 1777633814 | 3.89° C | 99% | 1014.8 hPa | 0 mm | - | - | - |
| 1777633512 | 4.44° C | 99% | 1013.8 hPa | 0 mm | - | - | - |
| 1777633210 | 3.89° C | 99% | 1013.8 hPa | 0 mm | - | - | - |
* Rain latest hour (hover to see other rain measurements)
** Current wind speed in m/s (hover to see current wind gust speed)